GW6838 Weather Reports


time (UTC)temp
F
wind
direction
speed
knots
gust
knots
rain 1hr
in
rain 24hr
in
rain mn
in
humidity
%
barometer
mb
20260505051803 64 205 3.5 7.0 0.00 0.00 0.00 48 1003.9
20260505051304 64 203 2.6 11.3 0.00 0.00 0.00 49 1004.1
20260505050804 64 205 2.6 7.0 0.00 0.00 0.00 50 1004.1
20260505041303 64 182 4.3 6.1 0.00 0.00 0.00 44 1003.7
20260505040805 64 209 1.7 6.1 0.00 0.00 0.00 45 1003.8
20260505040304 64 164 2.6 8.7 0.00 0.00 0.00 44 1003.8
20260505035805 64 202 2.6 6.1 0.00 0.00 0.00 45 1003.9
20260505035304 64 201 2.6 7.8 0.00 0.00 0.00 44 1003.8
20260505034803 64 218 1.7 7.0 0.00 0.00 0.00 44 1003.8
20260505034303 64 218 2.6 7.0 0.00 0.00 0.00 44 1003.7
20260505033805 64 210 2.6 7.8 0.00 0.00 0.00 44 1003.6
20260505033304 65 216 2.6 7.8 0.00 0.00 0.00 43 1003.8
20260505032805 65 187 2.6 10.4 0.00 0.00 0.00 43 1003.7
20260505032304 65 219 3.5 11.3 0.00 0.00 0.00 43 1003.6
20260505031804 65 212 4.3 10.4 0.00 0.00 0.00 42 1003.8
20260505031304 65 179 4.3 10.4 0.00 0.00 0.00 42 1003.7
20260505030305 65 209 3.5 10.4 0.00 0.00 0.00 42 1003.6
20260505025305 65 206 4.3 11.3 0.00 0.00 0.00 42 1003.7
20260505024803 65 206 4.3 11.3 0.00 0.00 0.00 42 1003.7
20260505024303 65 223 3.5 11.3 0.00 0.00 0.00 42 1003.7
20260505023804 65 193 5.2 14.8 0.00 0.00 0.00 41 1003.8
20260505022304 65 204 2.6 7.0 0.00 0.00 0.00 42 1003.9
20260505021804 64 169 1.7 6.1 0.00 0.00 0.00 43 1003.9
20260505021304 63 224 1.7 6.1 0.00 0.00 0.00 43 1003.8
20260505020305 63 237 1.7 4.3 0.00 0.00 0.00 44 1003.8
20260505015305 64 195 3.5 6.1 0.00 0.00 0.00 42 1003.8
20260505014804 64 167 1.7 7.0 0.00 0.00 0.00 42 1003.8
20260505014305 64 157 2.6 5.2 0.00 0.01 0.00 41 1003.7
20260505013804 64 176 1.7 5.2 0.00 0.01 0.00 41 1003.7
20260505013303 63 163 1.7 4.3 0.00 0.01 0.00 47 1003.9
20260505012804 61 186 0.9 2.6 0.00 0.02 0.00 52 1003.9
20260505012304 61 131 1.7 2.6 0.00 0.02 0.00 48 1003.8
20260505011804 61 81 0.9 1.7 0.00 0.02 0.00 47 1004.0
20260505011304 62 126 0.0 1.7 0.00 0.02 0.00 47 1003.9
20260505010805 62 111 1.7 1.7 0.00 0.02 0.00 46 1003.9
20260505010304 61 128 0.9 1.7 0.00 0.02 0.00 49 1003.8
20260505005806 62 105 0.9 1.7 0.00 0.02 0.00 48 1003.9
20260505005304 62 120 0.9 1.7 0.00 0.02 0.00 47 1003.9
20260505004804 63 106 0.9 1.7 0.00 0.02 0.00 46 1003.9
20260505004304 63 108 0.9 1.7 0.00 0.02 0.00 46 1003.8
20260505003804 64 119 0.9 1.7 0.00 0.03 0.00 46 1003.9
20260505002304 66 121 0.0 1.7 0.00 0.03 0.00 39 1003.8
20260505001304 67 138 0.0 0.9 0.00 0.03 0.00 37 1003.8
20260505000302 69 138 0.0 1.7 0.00 0.03 0.00 34 1003.7
20260504235804 70 182 0.9 1.7 0.00 0.03 0.00 32 1003.7
20260504234803 71 166 0.9 2.6 0.00 0.03 0.00 30 1003.6
20260504234304 71 185 1.7 2.6 0.00 0.03 0.00 30 1003.6
20260504233802 72 201 0.9 4.3 0.00 0.03 0.00 30 1003.6
20260504233303 72 198 1.7 4.3 0.00 0.03 0.00 29 1003.6
20260504232802 73 206 2.6 7.0 0.00 0.03 0.00 28 1003.4
20260504231803 73 213 4.3 6.1 0.00 0.03 0.00 27 1003.5
20260504231304 74 207 3.5 7.8 0.00 0.03 0.00 28 1003.5
20260504230803 74 204 1.7 8.7 0.00 0.03 0.00 28 1003.5
20260504230302 74 242 4.3 8.7 0.00 0.03 0.00 26 1003.7
20260504225804 74 229 5.2 7.0 0.00 0.03 0.00 28 1003.7
20260504225304 74 211 2.6 11.3 0.00 0.03 0.00 28 1003.7
20260504224303 74 217 7.0 11.3 0.00 0.03 0.00 27 1003.9
20260504223802 74 235 3.5 10.4 0.00 0.03 0.00 28 1003.8
20260504223303 74 225 6.1 10.4 0.00 0.03 0.00 29 1003.7
20260504222304 74 253 5.2 10.4 0.00 0.03 0.00 28 1003.8
20260504221804 74 210 4.3 11.3 0.00 0.03 0.00 29 1003.7
20260504220802 74 218 2.6 13.0 0.00 0.03 0.00 30 1004.0
20260504220302 73 237 4.3 17.4 0.00 0.03 0.00 30 1004.0
20260504215802 75 247 5.2 12.2 0.00 0.03 0.00 29 1004.0
20260504215304 74 205 7.0 12.2 0.00 0.03 0.00 29 1004.0
20260504214803 74 212 4.3 13.0 0.00 0.03 0.00 30 1004.0
20260504214303 73 231 11.3 15.6 0.00 0.03 0.00 30 1003.9
20260504213803 73 228 5.2 10.4 0.00 0.03 0.00 32 1003.9
20260504213303 73 279 5.2 14.8 0.00 0.03 0.00 30 1004.1
20260504212803 73 207 9.6 14.8 0.00 0.03 0.00 30 1004.2
20260504211803 73 238 7.8 20.9 0.00 0.03 0.00 30 1004.2
20260504211302 73 239 6.1 20.9 0.00 0.03 0.00 32 1004.0
20260504210303 74 207 7.8 15.6 0.00 0.03 0.00 30 1004.0
20260504205803 74 212 5.2 13.9 0.00 0.03 0.00 31 1004.0
20260504205304 74 279 7.8 20.0 0.00 0.03 0.00 30 1004.0
20260504204303 74 240 11.3 19.1 0.00 0.03 0.00 32 1004.2
20260504203302 73 220 3.5 13.0 0.00 0.03 0.00 32 1004.3
20260504202803 74 251 7.0 19.1 0.00 0.03 0.00 32 1004.2
20260504201804 73 214 10.4 13.9 0.00 0.03 0.00 32 1004.4
20260504201303 73 273 4.3 14.8 0.00 0.03 0.00 34 1004.4
20260504200803 73 246 8.7 14.8 0.00 0.03 0.00 32 1004.6
20260504200303 73 259 8.7 18.2 0.00 0.03 0.00 33 1004.8
20260504195803 73 228 9.6 18.2 0.00 0.03 0.00 33 1004.8
20260504195304 73 248 7.8 22.6 0.00 0.03 0.00 34 1004.6
20260504194802 73 243 7.0 22.6 0.00 0.03 0.00 34 1004.8
20260504193303 72 218 10.4 17.4 0.00 0.03 0.00 35 1005.1
20260504192804 71 262 5.2 14.8 0.00 0.03 0.00 37 1005.1
20260504192304 72 254 7.8 14.8 0.00 0.03 0.00 36 1005.3
20260504191803 72 274 10.4 15.6 0.00 0.03 0.00 35 1005.1
20260504191303 73 258 6.1 18.2 0.00 0.03 0.00 36 1005.2
20260504190804 72 226 9.6 20.0 0.00 0.03 0.00 36 1005.3
20260504190303 72 229 12.2 20.0 0.00 0.03 0.00 37 1005.3
20260504185803 71 256 8.7 20.0 0.00 0.03 0.00 36 1005.5
20260504185304 72 234 10.4 20.9 0.00 0.03 0.00 37 1005.2
20260504184804 71 220 10.4 25.2 0.00 0.03 0.00 37 1005.3
20260504184303 71 225 15.6 24.3 0.00 0.03 0.00 36 1005.5
20260504183802 72 262 6.1 18.2 0.00 0.03 0.00 37 1005.5
20260504183303 72 257 8.7 25.2 0.00 0.03 0.00 36 1005.5
20260504182804 71 239 13.9 25.2 0.00 0.03 0.00 38 1005.5
20260504182304 71 262 8.7 19.1 0.00 0.03 0.00 38 1005.6
20260504181803 70 263 10.4 15.6 0.00 0.03 0.00 37 1005.6
20260504181303 70 289 9.6 24.3 0.00 0.03 0.00 39 1005.8
20260504180803 70 202 10.4 24.3 0.00 0.03 0.00 40 1005.8
20260504180304 70 224 12.2 19.1 0.00 0.03 0.00 38 1005.9
20260504175803 71 220 8.7 17.4 0.00 0.03 0.00 40 1005.8
20260504175304 70 237 6.1 17.4 0.00 0.03 0.00 39 1005.9
20260504174802 69 238 9.6 14.8 0.00 0.03 0.00 39 1006.0
20260504174302 69 241 8.7 20.9 0.00 0.03 0.00 40 1006.0
20260504173802 69 273 7.8 17.4 0.00 0.03 0.00 40 1005.9
20260504173303 69 233 4.3 20.9 0.00 0.03 0.00 40 1006.0
20260504172803 68 230 16.5 20.9 0.00 0.03 0.00 40 1006.0
20260504172304 69 225 6.1 14.8 0.00 0.03 0.00 39 1006.2
20260504171803 68 280 7.8 18.2 0.00 0.03 0.00 40 1006.1
20260504171303 67 249 10.4 24.3 0.00 0.03 0.00 40 1006.1
20260504170303 69 216 9.6 19.1 0.00 0.03 0.00 41 1006.3
20260504160304 65 219 11.3 20.0 0.00 0.03 0.00 42 1006.8
20260504150804 62 220 8.7 19.1 0.00 0.03 0.00 43 1007.3
20260504150302 63 182 7.0 13.9 0.00 0.03 0.00 44 1007.2
20260504141303 61 217 7.8 20.9 0.00 0.03 0.00 44 1007.3
20260504140802 61 262 6.1 19.1 0.00 0.03 0.00 44 1007.4
20260504140305 60 239 10.4 19.1 0.00 0.03 0.00 45 1007.4
20260504130803 56 247 7.8 14.8 0.00 0.03 0.00 48 1007.8
20260504130303 55 223 6.1 13.9 0.00 0.03 0.00 48 1007.6
20260504110303 53 251 7.8 22.6 0.00 0.03 0.00 48 1007.8
20260504100303 52 215 5.2 14.8 0.00 0.03 0.00 50 1007.8
20260504081803 52 210 3.5 10.4 0.00 0.03 0.00 53 1008.3
20260504081304 52 212 4.3 12.2 0.00 0.03 0.00 53 1008.1
20260504080803 52 236 6.1 13.0 0.00 0.03 0.00 52 1008.2
20260504080303 52 223 5.2 15.6 0.00 0.03 0.00 51 1008.4
20260504070304 51 220 2.6 8.7 0.00 0.03 0.00 56 1008.4